Location: Newark
(45.8667°N, 9.7333°E)
Time: 03:19:52
(UTC+00:00)

A-11 Canister half - Pass Details

Date: 29 January 2020
Orbit: 1517 x 1683 km, 47.2° (Epoch: 16 February)

Event Time Altitude Azimuth Distance (km) Brightness Sun altitude
Rises 01:19:18 0° 276° (W) 4,709 - -54.7°
Reaches altitude 10° 01:22:22 10° 277° (W) 3,710 - -54.3°
Maximum altitude 01:31:44 84° 6° (N) 1,530 - -53.1°
Exits shadow 01:38:28 22° 95° (E) 2,873 10.6 -52.2°
Drops below altitude 10° 01:41:02 10° 96° (E) 3,684 11.3 -51.8°
Sets 01:44:05 0° 97° (E) 4,674 11.9 -51.4°
